[Iaude] MPEC G19: 2024 FG4 [a=1.55,e=0.32,i=13.6,H=25.2]
    mpec at cfa.harvard.edu 
    mpec at cfa.harvard.edu
       
    Wed Apr  3 08:59:17 EDT 2024
    
    
  
M.P.E.C. 2024-G19                                 Issued 2024 April 3, 12:57 UT
     The Minor Planet Electronic Circulars contain information on unusual
         minor planets, routine data on comets and natural satellites,
         and occasional editorial announcements.  They are published
    on behalf of Division F of the International Astronomical Union by the
          Minor Planet Center, Smithsonian Astrophysical Observatory,
                          Cambridge, MA 02138, U.S.A.
			  
             Prepared using the Tamkin Foundation Computer Network
                              MPC at CFA.HARVARD.EDU
            URL https://www.minorplanetcenter.net/    ISSN 1523-6714
                                    2024 FG4                                    
Observations:
     K24F04G* C2024 03 19.37132612 14 14.676+38 05 21.30         21.73GVEG019V00
     K24F04G  C2024 03 19.37696112 14 13.819+38 05 01.21         21.91GVEG019V00
     K24F04G  C2024 03 19.38256812 14 13.013+38 04 41.16         21.77GVEG019V00
     K24F04G  C2024 03 19.38817212 14 12.167+38 04 21.11         23.35GVEG019V00
     K24F04G  C2024 03 31.30687611 43 50.585+17 08 17.51         20.58wXEG019F52
     K24F04G  C2024 03 31.33293911 43 44.598+17 03 55.02         20.73wXEG019F52
     K24F04G  C2024 03 31.34608011 43 41.546+17 01 41.57         20.74wXEG019F52
     K24F04G  C2024 03 31.52881611 42 59.176+16 30 16.78         20.77GVEG019F52
     K24F04G  C2024 03 31.52946611 42 59.020+16 30 09.29         20.55GVEG019F52
     K24F04G KB2024 04 01.06536811 41 18.53 +14 55 11.0          20.6 GXEG019I93
     K24F04G KB2024 04 01.07238111 41 16.97 +14 53 53.8          20.0 GXEG019I93
     K24F04G KB2024 04 01.07922611 41 15.49 +14 52 39.3          20.4 GXEG019I93
     K24F04G KC2024 04 02.93070411 35 12.17 +08 57 05.6          20.7 GVEG019L01
     K24F04G IC2024 04 02.93267911 35 11.71 +08 56 41.1          20.5 GVEG019L01
     K24F04G IC2024 04 02.93465511 35 11.24 +08 56 16.9          20.8 GVEG019L01
     K24F04G KC2024 04 02.93677211 35 10.75 +08 55 51.2          20.7 GVEG019L01
     K24F04G KC2024 04 02.93815311 35 10.40 +08 55 34.6          20.7 GVEG019L01
Observer details:
F52 Pan-STARRS 2, Haleakala.  Observers J. Herman, T. Lowe, P. Minguez, A.
    Schultz, I. Smith.  Measurers K. Chambers, T. de Boer, J. Fairlamb, H.
    Gao, M. Huber, C.-C. Lin, E. Magnier, Y. Ramanjooloo, R. Wainscoat, R.
    Weryk.  1.8-m Ritchey-Chretien + CCD.
I93 St Pardon de Conques.  Observer F. Losse.  0.40-m f/3.7 reflector + CCD.
L01 Visnjan Observatory, Tican.  Observers K. Korlevic, L. Poropat.  Measurer
    K. Korlevic.  1.0-m f/2.9 reflector + CCD.
V00 Kitt Peak-Bok.  Observers V. F. Carvajal, H. Groeller.  Measurers M. J.
    Brucker, C. E. Woodward, T. Beuden, V. F. Carvajal, D. Fay, J. B. Fazekas,
    D. C. Fuls, A. R. Gibbs, H. Groeller, J. K. Hogan, R. A. Kowalski, S. M.
    Larson, C. Lejoly, G. J. Leonard, R. A. Mastaler, R. S. McMillan, D.
    Rankin, R. L. Seaman, F. C. Shelly, K. W. Wierzchos.  2.25-m reflector +
    4x4K mosaic CCD.
Orbital elements:
2024 FG4                                                 Earth MOID = 0.0603 AU
Epoch 2024 Mar. 31.0 TT = JDT 2460400.5                 Bell                    
M 349.44542              (2000.0)            P               Q                  
n   0.51215048     Peri.  196.73560     -0.86622375     +0.49663633             
a   1.5471687      Node    13.45745     -0.42717955     -0.67915458             
e   0.3196617      Incl.   13.63272     -0.25917956     -0.54046407             
P   1.92           H   25.25          G   0.15           U   8                  
Residuals in seconds of arc
240319 V00  0.1+  0.3+    240331 F52  0.5-  0.2-    240402 L01  0.1-  0.0
240319 V00  0.2-  0.1+    240331 F52  0.0   0.4+    240402 L01  0.1+  0.3-
240319 V00  0.1+  0.1-    240331 F52  0.1-  0.3-    240402 L01  0.2+  0.3-
240319 V00  0.0   0.3-    240401 I93  0.1+  0.8+    240402 L01  0.4+  0.0
240331 F52  0.4-  0.2-    240401 I93  0.0   0.2-    240402 L01  0.1+  0.3+
240331 F52  0.4-  0.2+    240401 I93  0.3+  0.3-
Ephemeris:
2024 FG4                 a,e,i = 1.55, 0.32, 14                  q = 1.0526
Date    TT    R. A. (2000) Decl.     Delta      r    Elong.  Phase     V
2024 03 04    12 32 40.5 +45 30 53   0.1966  1.1413   136.0    37.1    23.5
...
2024 03 19    12 14 59.4 +38 26 20   0.1244  1.0961   141.9    34.1    22.3
...
2024 03 27    11 56 24.7 +27 21 57   0.09185 1.0778   149.3    28.2    21.5
...
2024 04 02    11 38 19.6 +12 02 46   0.07348 1.0672   156.2    22.2    20.8
2024 04 03    11 34 58.9 +08 44 18   0.07124 1.0657   156.8    21.7    20.7
2024 04 04    11 31 33.0 +05 13 10   0.06930 1.0642   156.9    21.6    20.6
...
2024 04 10    11 09 21.6 -18 45 04   0.06502 1.0574   147.7    30.5    20.7
...
2024 04 18    10 37 06.9 -46 43 44   0.07857 1.0529   126.7    49.9    21.7
...
2024 05 03    09 37 57.4 -70 28 34   0.1312  1.0591   109.5    63.8    23.2
M. P. C. Staff               (C) Copyright 2024 MPC           M.P.E.C. 2024-G19
    
    
More information about the Iaude
mailing list